Вернуться в каталог

STARLINK-34466

АктивенСвязьVLEO
NORAD 66226·PAYLOAD·🇺🇸 United States

Запущен Oct 28, 2025 с Vandenberg Space Force Base

Loading…

Ближайшие Пролёты (ближайшие 24 часа)

TLE

СвежийSource: CelesTrak SupGP

Эпоха: Sep 14, 2026, 22:43 UTC

1 66226C 25244W   26257.94701389  .00039387  00000+0  11639-2 0  2570
2 66226  53.1586  67.4385 0001069  77.3738 275.5591 15.34365464    12

Отслеживайте STARLINK-34466 в реальном времени с AllMySat

Download on the App Store